Location: El Gallo
(32.4380°N, 116.9347°W)
Time: 20:51:33
(UTC+00:00)

IRS-P3 - Pass Details

Date: 01 October 2022
Orbit: 813 x 819 km, 99.0° (Epoch: 02 December)

Event Time Altitude Azimuth Distance (km) Brightness Sun altitude
Rises 12:06:01 0° 5° (N) 3,349 7.5 -21.0°
Reaches altitude 10° 12:08:27 10° 359° (N) 2,413 6.7 -20.5°
Maximum altitude 12:13:29 44° 288° (WNW) 1,115 4.4 -19.4°
Enters shadow 12:15:11 33° 244° (WSW) 1,329 4.7 -19.1°
